Regional Weather Roundup
Issued by NWS

Home | Current Version | Previous Version | Graphics & Text | Print | Product List | Glossary On
Versions: 1 2 3 4 5 6 7 8 9 10 11 12 13 14 15 16 17 18 19 20 21 22 23 24 25 26 27 28 29 30 31 32 33 34 35 36 37 38 39 40 41 42 43 44 45 46 47 48 49 50
000
ASUS43 KLSX 290707
RWRMO

WEATHER SUMMARY FOR MISSOURI
NATIONAL WEATHER SERVICE SPRINGFIELD MO
200 AM CDT SUN MAR 29 2015

NOTE: "FAIR" INDICATES FEW OR NO CLOUDS BELOW 12,000 FEET WITH NO
       SIGNIFICANT WEATHER AND/OR OBSTRUCTIONS TO VISIBILITY.
       CURRENT SKY AND/OR WEATHER CONDITIONS ARE NOT AVAILABLE FOR
       CHILLICOTHE AND FARMINGTON.

MOZ001>031-035>038-043-044-053-054-290800-
...NORTHERN AND WESTERN MISSOURI...

CITY           SKY/WX    TMP DP  RH WIND       PRES   REMARKS
KANSAS CTY INT CLEAR     39  32  76 S18       29.99F WCI  30
KANSAS C DTWN  CLEAR     41  32  70 S10G18    30.03F
LEE`S SUMMIT   CLEAR     38  31  76 S15G26    30.03F WCI  29
ST JOSEPH      CLEAR     41  32  70 S16       29.99F
CHILLICOTHE      N/A     39  31  72 SE10      30.07F
KIRKSVILLE     CLEAR     33  25  72 S13       30.11F WCI  24

$$
MOZ066>068-077>081-088>096-101>105-290800-
...SOUTHWEST MISSOURI...

CITY           SKY/WX    TMP DP  RH WIND       PRES   REMARKS
SPRINGFIELD    CLEAR     35  30  82 SE22G31   30.11F WCI  23
JOPLIN         CLEAR     40  32  73 SE13      30.07F

$$
MOZ032>034-039>042-045>050-055>058-069>072-290800-
...CENTRAL MISSOURI...

CITY           SKY/WX    TMP DP  RH WIND       PRES   REMARKS
COLUMBIA       CLEAR     35  29  78 S15       30.15F WCI  25
JEFFERSON CITY CLEAR     36  29  75 SE10      30.18F WCI  28
ROLLA          CLEAR     34  27  75 S14       30.17F WCI  25
SEDALIA        CLEAR     37  30  75 SE14      30.11F WCI  28
WHITEMAN AFB   CLEAR     37  32  83 S13G21    30.09F WCI  28
WARRENSBURG    CLEAR     36  32  87 SE10      30.08F WCI  28
OSAGE BEACH    CLEAR     36  27  69 SE9       30.15F WCI  29

$$
MOZ051-052-059>065-290800-
...EAST CENTRAL MISSOURI...

CITY           SKY/WX    TMP DP  RH WIND       PRES   REMARKS
ST LOUIS INTL  CLEAR     37  16  42 S13       30.26F WCI  29
SPIRIT OF STL  CLEAR     35  18  49 SE6       30.24F
ST CHARLES     CLEAR     32  22  66 SE6       30.25F WCI  26

$$
MOZ072>076-082>087-097>100-106>115-290800-
...SOUTH CENTRAL AND SOUTHEAST MISSOURI...

CITY           SKY/WX    TMP DP  RH WIND       PRES   REMARKS
CAPE GIRARDEAU CLEAR     32  24  72 SE8       30.31F WCI  25
FARMINGTON     CLEAR     30  25  80 S6        30.28F WCI  24
POPLAR BLUFF   CLEAR     33  29  85 CALM      30.30S
WEST PLAINS    CLEAR     32  28  85 SE5       30.23F WCI  27

$$



USA.gov is the U.S. government's official web portal to all federal, state and local government web resources and services.